Weather in Foz do Iguaçu

Brazil     25°33′06″S   54°34′58″W
temp.,
°C
wind,
m/s
gust,
m/s
humid.,
%
clouds,
%
prec.,
mm/h
press.,
hPa
HPBL,
m
16 june, wed
wed1600:00+14s2789100 0.0 1020194
03:00+13s2897100 0.0 1020290
06:00+13s3792100 0.0 1019398
09:00+14sse348295 0.0 1021502
12:00+19ssw236010 0.0 1021995
15:00+20ssw345433 0.0 10191350
18:00+16s2668100 0.0 1019280
21:00+14s3872100 0.0 1021675
17 june, thu
thu1700:00+13s2778100 0.0 1022365
03:00+12s247974 0.0 1021251
06:00+12s2579100 0.0 1021270
09:00+12s2678100 0.0 1024305
12:00+15s235956 0.0 1024614
15:00+18s2347100 0.0 10211045
18:00+15ssw3761100 0.0 1022369
21:00+12s2669100 0.0 1023262
18 june, fri
fri1800:00+12ssw2470100 0.0 1023187
03:00+12s1471100 0.0 1022142
06:00+11ssw2372100 0.0 1022142
09:00+12sse237093 0.1 1024158
12:00+16wsw1156100 0.0 1024397
15:00+15w116596 0.1 102195
18:00+13ene1189100 0.4 102146
21:00+13s1298100 1.7 102293
19 june, sat
sat1900:00+13se129899 1.2 1020113
03:00+13se119989 4.3 101941
06:00+14sw1199100 4.4 101956
09:00+14wsw1299100 15.3 1020156
12:00+13sw2498100 7.9 1021295
15:00+13sw2598100 9.3 1020321
18:00+12sw269886 0.2 1020333
21:00+12sw1598100 0.2 1021294
20 june, sun
sun2000:00+12sw139874 0.0 1021173
03:00+11ssw1497100 0.1 1021236
06:00+11ssw1497100 0.0 1021193
09:00+12s1395100 0.0 1022171
12:00+17se2364100 0.0 10211002
15:00+19se2357100 0.0 10181109
18:00+15se1180100 0.0 101816
21:00+12se1189100 0.0 101931